Regional Weather Roundup
Issued by NWS Cleveland, OH

Current Version | Previous Version | Graphics & Text | Print | Product List | Glossary On
Versions: 1 2 3 4 5 6 7 8 9 10 11 12 13 14 15 16 17 18 19 20 21 22 23 24 25 26 27 28 29 30 31 32 33 34 35 36 37 38 39 40 41 42 43 44 45 46 47 48 49 50
000
ASUS41 KCLE 171412
RWRCLE
OHIO REGIONAL WEATHER ROUNDUP
NATIONAL WEATHER SERVICE WILMINGTON, OH
1000 AM EDT SUN OCT 17 2021

NOTE: "FAIR" INDICATES FEW OR NO CLOUDS BELOW 12,000 FEET WITH NO
SIGNIFICANT WEATHER AND/OR OBSTRUCTIONS TO VISIBILITY.

OHZ001>008-015>018-024>027-034-035-043-044-171500-
   NORTHWEST OHIO

CITY           SKY/WX    TMP DP  RH WIND       PRES   REMARKS
DEFIANCE       FAIR      50  41  71 VRB6      30.08S
FINDLAY        CLOUDY    52  41  66 W12       30.07R
TOLEDO EXPRESS PTSUNNY   51  40  65 W14       30.05R
TOLEDO EXEC    PTSUNNY   51  41  68 W10       30.05S
LIMA           FAIR      50  40  68 W9        30.10R
$$

OHZ009>014-019>023-028>033-038-089-171500-
   NORTHEAST OHIO

CITY           SKY/WX    TMP DP  RH WIND       PRES   REMARKS
CLE-HOPKINS    CLOUDY    50  42  74 W12       30.00R
CLE-LAKEFRONT  PTSUNNY   53  45  74 SW15      30.00R
CUY CO. ARPT   MOSUNNY   55  43  62 NW12G23   30.00R
LORAIN-ELYRIA  CLOUDY    51  40  65 W9        30.04R
ASHTABULA      PTSUNNY   55  40  56 NW12G20   29.98R
AKRON-CANTON   FAIR      52  41  66 W10       30.03R
WOOSTER        PTSUNNY   51  39  63 W12       30.05R
MANSFIELD      CLOUDY    48  39  71 W7        30.06R
YOUNGSTOWN     FAIR      51  42  71 W12       29.99S
$$

OHZ042-051>053-060>062-070>072-077>081-171500-
  SOUTHWEST OHIO

CITY           SKY/WX    TMP DP  RH WIND       PRES   REMARKS
CINC-COVINGTON FAIR      50  39  66 W8        30.17S
CINC-LUNKEN    FAIR      51  43  74 SW5       30.19R
HAMILTON       FAIR      49  41  74 VRB3      30.18R
DAYTON         FAIR      52  37  56 W12       30.15R
WRIGHT-PAT AFB FAIR      49  36  60 SW6       30.14S
DAYTON GENERAL FAIR      49  39  68 SW6       30.14S
WILMINGTON     FAIR      49  40  71 W12       30.15R
$$

OHZ036-037-039>041-045>050-054>059-063>069-073>076-082>088-171500-
  CENTRAL AND SOUTHEAST OHIO

CITY           SKY/WX    TMP DP  RH WIND       PRES   REMARKS
COLUMBUS       FAIR      52  39  61 W9        30.10S
OSU AIRPORT    FAIR      52  40  63 W10       30.11S
BOLTON FIELD   SUNNY     50  39  66 W7        30.12R
RICKENBACK AFB FAIR      51  39  64 W7        30.12R
NEWARK         FAIR      54  38  54 W9        30.10R
MARION         FAIR      51  39  63 W12       30.08S
LANCASTER      FAIR      50  40  68 W8        30.12S
ZANESVILLE     FAIR      52  40  63 W8        30.09S
NEW PHILLY     FAIR      54  40  59 W10       30.06R
$$



USA.gov is the U.S. government's official web portal to all federal, state and local government web resources and services.